Temp
0 -0 -0 -1 -1 -1 -1 -2 -2 -2 -2 -2 -3 -3 -3 -3 -4 -4 -4 -4 -5 -5 -5 -6 -6 -6 -7 -7 -7 -8 -8 -9 -9 -9 -9 -10 -10 -10 -10 -10 -10 -10 -10 -10 -11 -11 -11 -11 -11 -11 -11 -11 -10 -10 -10 -10 -10 -10 -10 -10 -10 -10 -10 -10 -10 -10 -10 -10 -10
0 -0 -0 -1 -1 -1 -1 -2 -2 -2 -2 -2 -3 -3 -3 -3 -4 -4 -4 -4 -5 -5 -5 -6 -6 -6 -7 -7 -7 -8 -8 -9 -9 -9 -9 -9 -10 -10 -10 -10 -10 -10 -10 -10 -11 -11 -11 -11 -11 -11 -11 -11 -10 -10 -10 -10 -10 -10 -10 -10 -10 -10 -10 -10 -10 -10 -10 -10 -10
0 -0 -1 -1 -1 -1 -1 -2 -2 -2 -2 -3 -3 -3 -3 -3 -4 -4 -4 -4 -5 -5 -5 -6 -6 -6 -7 -7 -7 -8 -8 -8 -9 -9 -9 -9 -9 -10 -10 -10 -10 -10 -10 -10 -11 -11 -11 -11 -11 -11 -11 -11 -11 -10 -10 -10 -10 -10 -10 -10 -10 -10 -10 -10 -10 -10 -10 -10 -10
0 -0 -1 -1 -1 -1 -2 -2 -2 -2 -2 -3 -3 -3 -3 -4 -4 -4 -4 -4 -5 -5 -5 -6 -6 -6 -7 -7 -7 -8 -8 -8 -9 -9 -9 -9 -9 -9 -10 -10 -10 -10 -10 -10 -10 -11 -11 -11 -11 -11 -11 -11 -11 -11 -10 -10 -10 -10 -10 -10 -10 -10 -10 -10 -10 -10 -10 -10 -10
0 -0 -1 -1 -1 -1 -2 -2 -2 -2 -2 -3 -3 -3 -3 -4 -4 -4 -4 -5 -5 -5 -5 -6 -6 -6 -6 -7 -7 -7 -8 -8 -8 -9 -9 -9 -9 -9 -9 -10 -10 -10 -10 -10 -10 -10 -11 -11 -11 -11 -11 -11 -11 -11 -10 -10 -10 -10 -10 -10 -10 -10 -10 -10 -10 -10 -10 -10 -10
-0 -0 -1 -1 -1 -1 -2 -2 -2 -2 -2 -3 -3 -3 -4 -4 -4 -4 -4 -5 -5 -5 -5 -6 -6 -6 -6 -7 -7 -7 -8 -8 -8 -8 -9 -9 -9 -9 -9 -10 -10 -10 -10 -10 -10 -10 -11 -11 -11 -11 -11 -11 -11 -11 -11 -11 -10 -10 -10 -10 -10 -10 -10 -10 -10 -10 -10 -10 -10
-0 -0 -1 -1 -1 -2 -2 -2 -2 -2 -2 -3 -3 -3 -4 -4 -4 -4 -4 -5 -5 -5 -5 -6 -6 -6 -6 -7 -7 -7 -7 -8 -8 -8 -8 -8 -9 -9 -9 -9 -10 -10 -10 -10 -10 -10 -11 -11 -11 -11 -11 -11 -11 -11 -11 -11 -11 -10 -10 -10 -10 -10 -10 -10 -10 -10 -10 -10 -11
-0 -0 -1 -1 -1 -2 -2 -2 -2 -2 -3 -3 -3 -3 -4 -4 -4 -4 -4 -5 -5 -5 -5 -5 -6 -6 -6 -7 -7 -7 -7 -7 -8 -8 -8 -8 -8 -9 -9 -9 -9 -10 -10 -10 -10 -10 -11 -11 -11 -11 -11 -11 -11 -11 -11 -11 -11 -10 -10 -10 -10 -10 -10 -10 -10 -10 -11 -11 -11
-0 -1 -1 -1 -1 -2 -2 -2 -2 -2 -3 -3 -3 -3 -4 -4 -4 -4 -4 -5 -5 -5 -5 -5 -6 -6 -6 -6 -7 -7 -7 -7 -7 -8 -8 -8 -8 -8 -9 -9 -9 -9 -10 -10 -10 -10 -11 -11 -11 -11 -11 -11 -11 -11 -11 -11 -11 -10 -10 -10 -10 -10 -10 -10 -10 -11 -11 -11 -11
-0 -1 -1 -1 -1 -2 -2 -2 -2 -2 -3 -3 -3 -3 -4 -4 -4 -4 -4 -5 -5 -5 -5 -5 -6 -6 -6 -6 -7 -7 -7 -7 -7 -8 -8 -8 -8 -8 -9 -9 -9 -9 -9 -10 -10 -10 -11 -11 -11 -11 -11 -11 -11 -11 -11 -11 -11 -10 -10 -10 -10 -10 -10 -10 -10 -11 -11 -11 -11
-0 -1 -1 -1 -1 -2 -2 -2 -2 -2 -3 -3 -3 -3 -4 -4 -4 -4 -4 -5 -5 -5 -5 -6 -6 -6 -6 -6 -7 -7 -7 -7 -7 -7 -8 -8 -8 -8 -8 -9 -9 -9 -9 -9 -10 -10 -10 -11 -11 -11 -11 -11 -11 -11 -11 -11 -11 -10 -10 -10 -10 -10 -10 -10 -10 -11 -11 -11 -11
-0 -1 -1 -1 -1 -2 -2 -2 -2 -2 -3 -3 -3 -3 -4 -4 -4 -4 -4 -5 -5 -5 -5 -5 -6 -6 -6 -6 -7 -7 -7 -7 -7 -7 -7 -8 -8 -8 -8 -8 -9 -9 -9 -9 -10 -10 -10 -10 -10 -10 -10 -11 -11 -11 -11 -11 -10 -10 -10 -10 -10 -10 -10 -10 -10 -11 -11 -11 -11
-0 -1 -1 -1 -1 -2 -2 -2 -2 -2 -3 -3 -3 -3 -4 -4 -4 -4 -4 -4 -5 -5 -5 -5 -6 -6 -6 -6 -7 -7 -7 -7 -7 -7 -7 -7 -8 -8 -8 -8 -8 -9 -9 -9 -10 -10 -10 -10 -10 -10 -10 -10 -10 -10 -10 -10 -10 -10 -10 -10 -10 -10 -10 -10 -10 -10 -11 -11 -11
-0 -0 -1 -1 -1 -2 -2 -2 -2 -2 -3 -3 -3 -3 -4 -4 -4 -4 -4 -4 -5 -5 -5 -5 -6 -6 -6 -6 -7 -7 -7 -7 -7 -7 -7 -7 -8 -8 -8 -8 -8 -9 -9 -9 -10 -10 -10 -10 -10 -10 -10 -10 -10 -10 -10 -10 -10 -10 -10 -10 -9 -9 -9 -10 -10 -10 -11 -11 -11
-0 -0 -1 -1 -1 -2 -2 -2 -2 -2 -3 -3 -3 -3 -4 -4 -4 -4 -4 -4 -5 -5 -5 -5 -6 -6 -6 -6 -7 -7 -7 -7 -7 -7 -7 -7 -8 -8 -8 -8 -8 -9 -9 -9 -9 -10 -10 -10 -10 -10 -10 -10 -10 -10 -10 -10 -10 -9 -9 -9 -9 -9 -9 -9 -10 -10 -11 -11 -11
-0 -0 -1 -1 -1 -2 -2 -2 -2 -2 -2 -3 -3 -3 -3 -4 -4 -4 -4 -5 -5 -5 -5 -5 -5 -6 -6 -6 -7 -7 -7 -7 -7 -7 -7 -7 -8 -8 -8 -8 -8 -9 -9 -9 -9 -9 -9 -10 -10 -10 -10 -10 -10 -10 -9 -9 -9 -9 -9 -9 -9 -9 -9 -9 -10 -10 -11 -11 -11
-0 -0 -1 -1 -1 -1 -2 -2 -2 -2 -2 -3 -3 -3 -3 -4 -4 -4 -4 -5 -5 -5 -5 -5 -5 -6 -6 -6 -7 -7 -7 -7 -7 -7 -7 -8 -8 -8 -8 -8 -8 -8 -9 -9 -9 -9 -9 -9 -10 -10 -10 -10 -10 -9 -9 -9 -9 -9 -9 -9 -9 -9 -9 -10 -10 -10 -11 -10 -11
-0 -0 -1 -1 -1 -1 -2 -2 -2 -2 -2 -3 -3 -3 -3 -4 -4 -4 -4 -5 -5 -5 -5 -5 -5 -6 -6 -6 -7 -7 -7 -7 -7 -7 -7 -8 -8 -8 -8 -8 -8 -8 -8 -9 -9 -9 -9 -9 -9 -10 -9 -9 -9 -9 -9 -9 -9 -9 -9 -9 -9 -9 -9 -10 -10 -10 -10 -10 -10
-0 -0 -1 -1 -1 -1 -2 -2 -2 -2 -2 -3 -3 -3 -3 -4 -4 -4 -4 -4 -5 -5 -5 -5 -5 -6 -6 -6 -7 -7 -7 -7 -7 -7 -7 -7 -7 -8 -8 -8 -8 -8 -8 -8 -9 -9 -9 -9 -9 -9 -9 -9 -9 -9 -9 -9 -9 -9 -9 -8 -9 -9 -9 -9 -10 -10 -10 -10 -10
-0 -0 -1 -1 -1 -1 -2 -2 -2 -2 -2 -3 -3 -3 -3 -4 -4 -4 -4 -4 -5 -5 -5 -5 -5 -6 -6 -6 -6 -7 -7 -7 -7 -7 -7 -7 -7 -7 -7 -8 -8 -8 -8 -8 -8 -9 -9 -9 -9 -9 -9 -9 -9 -9 -9 -9 -9 -9 -8 -8 -9 -9 -9 -9 -9 -10 -10 -10 -10
-0 -0 -1 -1 -1 -1 -2 -2 -2 -2 -2 -2 -3 -3 -3 -3 -4 -4 -4 -4 -5 -5 -5 -5 -5 -6 -6 -6 -6 -7 -7 -7 -7 -7 -7 -7 -7 -7 -7 -8 -8 -8 -8 -8 -8 -8 -9 -9 -8 -9 -9 -9 -9 -9 -9 -9 -9 -8 -8 -8 -8 -8 -8 -9 -9 -10 -10 -10 -10
-0 -0 -1 -1 -1 -1 -2 -2 -2 -2 -2 -2 -3 -3 -3 -3 -4 -4 -4 -4 -4 -5 -5 -5 -5 -6 -6 -6 -6 -7 -7 -7 -7 -7 -7 -7 -7 -7 -8 -8 -8 -8 -8 -8 -8 -8 -8 -8 -8 -8 -8 -9 -9 -9 -9 -8 -8 -8 -8 -8 -8 -8 -8 -9 -9 -10 -10 -10 -10
-0 -1 -1 -1 -1 -1 -1 -2 -2 -2 -2 -2 -3 -3 -3 -3 -4 -4 -4 -4 -4 -5 -5 -5 -5 -6 -6 -6 -6 -6 -7 -7 -7 -7 -7 -7 -7 -7 -8 -8 -8 -8 -8 -8 -8 -8 -8 -8 -8 -9 -9 -9 -9 -9 -9 -8 -8 -8 -8 -8 -8 -8 -8 -9 -9 -9 -10 -10 -10
-0 -0 -1 -1 -1 -1 -1 -2 -2 -2 -2 -2 -3 -3 -3 -3 -4 -4 -4 -4 -4 -5 -5 -5 -5 -6 -6 -6 -6 -6 -7 -7 -7 -7 -7 -7 -7 -7 -7 -7 -7 -7 -8 -8 -8 -8 -8 -9 -9 -9 -9 -9 -9 -8 -8 -8 -8 -8 -8 -8 -8 -8 -8 -8 -8 -9 -9 -9 -10
-0 -0 -1 -1 -1 -1 -1 -2 -2 -2 -2 -2 -3 -3 -3 -3 -3 -4 -4 -4 -4 -4 -5 -5 -5 -6 -6 -6 -6 -6 -7 -7 -7 -7 -7 -7 -7 -7 -7 -7 -7 -7 -7 -7 -7 -7 -8 -9 -9 -9 -9 -9 -8 -8 -8 -7 -7 -7 -8 -8 -8 -8 -8 -8 -8 -9 -9 -9 -10
-0 -0 -1 -1 -1 -1 -1 -1 -2 -2 -2 -2 -3 -3 -3 -3 -3 -4 -4 -4 -4 -4 -5 -5 -5 -6 -6 -6 -6 -6 -6 -7 -7 -7 -7 -7 -7 -7 -7 -7 -7 -7 -7 -7 -7 -7 -8 -9 -9 -9 -8 -8 -8 -8 -8 -7 -7 -7 -7 -8 -8 -8 -8 -8 -9 -9 -9 -9 -9
-0 -0 -1 -1 -1 -1 -1 -1 -2 -2 -2 -2 -3 -3 -3 -3 -3 -3 -4 -4 -4 -4 -4 -5 -5 -5 -6 -6 -6 -6 -6 -7 -7 -7 -7 -7 -7 -7 -7 -7 -7 -7 -7 -7 -7 -8 -9 -9 -9 -8 -8 -8 -8 -8 -7 -7 -7 -7 -8 -8 -8 -9 -9 -9 -9 -9 -9 -9 -9
-0 -0 -1 -1 -1 -1 -1 -1 -2 -2 -2 -2 -2 -3 -3 -3 -3 -3 -3 -4 -4 -4 -4 -5 -5 -5 -5 -6 -6 -6 -6 -7 -7 -7 -7 -7 -7 -7 -7 -7 -7 -7 -7 -7 -7 -8 -8 -9 -9 -8 -8 -8 -8 -8 -7 -7 -7 -8 -8 -8 -8 -9 -9 -9 -9 -9 -9 -9 -9
-0 -0 -1 -1 -1 -1 -1 -1 -2 -2 -2 -2 -2 -3 -3 -3 -3 -3 -3 -4 -4 -4 -4 -5 -5 -5 -5 -6 -6 -6 -6 -7 -7 -7 -7 -7 -7 -7 -7 -7 -7 -7 -7 -7 -7 -8 -8 -9 -8 -8 -8 -8 -8 -7 -7 -7 -7 -8 -8 -8 -8 -8 -9 -9 -9 -9 -9 -9 -9
-0 -0 -0 -1 -1 -1 -1 -1 -2 -2 -2 -2 -2 -3 -3 -3 -3 -3 -3 -4 -4 -4 -4 -4 -5 -5 -5 -5 -6 -6 -6 -6 -7 -7 -7 -7 -7 -7 -7 -7 -7 -7 -7 -7 -7 -8 -8 -9 -8 -8 -8 -8 -7 -7 -7 -7 -8 -8 -8 -8 -8 -8 -8 -8 -8 -8 -9 -9 -9
-0 -0 -0 -0 -1 -1 -1 -1 -2 -2 -2 -2 -2 -2 -3 -3 -3 -3 -3 -4 -4 -4 -4 -4 -4 -5 -5 -5 -5 -6 -6 -6 -6 -7 -7 -7 -7 -7 -7 -7 -7 -7 -7 -7 -7 -8 -8 -8 -8 -8 -8 -7 -7 -7 -7 -8 -8 -8 -8 -8 -8 -8 -8 -8 -8 -8 -9 -9 -9
-0 -0 -0 -0 -0 -1 -1 -1 -2 -2 -2 -2 -2 -2 -3 -3 -3 -3 -3 -3 -4 -4 -4 -4 -4 -4 -5 -5 -5 -5 -6 -6 -6 -7 -7 -7 -7 -7 -7 -6 -6 -7 -7 -7 -7 -8 -8 -8 -8 -8 -7 -7 -7 -7 -8 -7 -8 -8 -8 -8 -8 -8 -8 -8 -8 -8 -9 -9 -9
-0 -0 -0 -0 -0 -1 -1 -1 -2 -2 -2 -2 -2 -2 -3 -3 -3 -3 -3 -3 -3 -4 -4 -4 -4 -4 -5 -5 -5 -5 -6 -6 -6 -6 -7 -7 -7 -7 -7 -6 -6 -7 -7 -7 -7 -8 -8 -8 -8 -8 -7 -7 -7 -7 -7 -7 -8 -8 -8 -8 -8 -8 -8 -8 -8 -8 -9 -9 -9
-0 -0 -0 -0 -0 -1 -1 -1 -1 -2 -2 -2 -2 -2 -3 -3 -3 -3 -3 -3 -3 -4 -4 -4 -4 -4 -4 -5 -5 -5 -5 -6 -6 -6 -6 -7 -7 -7 -7 -6 -7 -7 -7 -7 -7 -7 -8 -8 -8 -8 -7 -7 -7 -7 -7 -7 -8 -8 -8 -8 -8 -8 -8 -8 -8 -8 -9 -9 -10
0 -0 -0 -0 -0 -1 -1 -1 -1 -1 -2 -2 -2 -2 -3 -3 -3 -3 -3 -3 -3 -3 -4 -4 -4 -4 -4 -4 -5 -5 -5 -5 -6 -6 -6 -7 -7 -7 -7 -6 -7 -7 -7 -7 -7 -7 -8 -8 -8 -7 -7 -7 -7 -7 -7 -8 -8 -8 -8 -8 -8 -8 -8 -8 -8 -9 -9 -9 -10
0 -0 -0 -0 -0 -1 -1 -1 -1 -1 -2 -2 -2 -2 -3 -3 -3 -3 -3 -3 -3 -3 -3 -4 -4 -4 -4 -4 -4 -5 -5 -5 -6 -6 -6 -7 -7 -7 -7 -6 -7 -7 -7 -7 -7 -7 -8 -8 -8 -7 -7 -7 -7 -7 -8 -8 -8 -8 -8 -8 -8 -8 -8 -8 -8 -9 -9 -10 -10
0 -0 -0 -0 -0 -0 -1 -1 -1 -1 -1 -2 -2 -2 -3 -3 -3 -3 -3 -3 -3 -3 -3 -3 -3 -4 -4 -4 -4 -4 -5 -5 -6 -6 -6 -6 -7 -7 -7 -7 -7 -7 -7 -7 -7 -7 -7 -8 -7 -7 -6 -6 -7 -7 -8 -8 -8 -8 -8 -8 -8 -8 -8 -8 -8 -9 -9 -10 -11
0 -0 -0 -0 -0 -0 -1 -1 -1 -1 -1 -2 -2 -2 -3 -3 -3 -3 -3 -3 -3 -3 -3 -3 -3 -3 -3 -4 -4 -4 -5 -5 -6 -6 -6 -6 -7 -7 -7 -7 -7 -7 -7 -7 -7 -7 -7 -7 -7 -7 -6 -6 -7 -7 -8 -8 -8 -8 -8 -8 -8 -8 -8 -8 -8 -9 -9 -10 -11
0 -0 -0 -0 -0 -0 -0 -1 -1 -1 -1 -2 -2 -2 -2 -2 -2 -3 -3 -3 -3 -3 -3 -3 -3 -3 -3 -4 -4 -4 -4 -5 -6 -6 -6 -6 -7 -7 -7 -7 -7 -7 -7 -7 -7 -7 -7 -7 -7 -7 -6 -7 -7 -8 -8 -8 -8 -8 -8 -8 -8 -8 -8 -8 -8 -8 -9 -9 -10
0 -0 -0 -0 -0 -0 -0 -0 -1 -1 -1 -2 -2 -2 -2 -2 -2 -3 -3 -3 -3 -3 -3 -3 -3 -3 -3 -3 -4 -4 -4 -4 -5 -6 -6 -6 -7 -7 -7 -7 -7 -7 -7 -7 -7 -7 -7 -7 -7 -7 -6 -7 -7 -8 -8 -8 -8 -8 -8 -8 -8 -8 -8 -8 -8 -8 -9 -9 -9
0 -0 -0 -0 0 -0 -0 -0 -1 -1 -1 -2 -2 -2 -2 -2 -2 -2 -3 -3 -3 -3 -3 -3 -3 -3 -3 -3 -3 -3 -4 -4 -5 -5 -6 -6 -6 -7 -7 -7 -7 -7 -7 -7 -7 -7 -7 -7 -7 -7 -7 -7 -7 -8 -8 -8 -8 -8 -8 -8 -8 -8 -8 -8 -8 -8 -9 -9 -9
Height
1535 1535 1534 1534 1533 1532 1532 1531 1530 1529 1528 1527 1527 1525 1524 1523 1522 1521 1520 1519 1518 1517 1516 1515 1514 1513 1512 1511 1510 1509 1508 1507 1507 1506 1505 1504 1503 1502 1501 1500 1499 1498 1497 1495 1494 1493 1492 1490 1489 1488 1486 1485 1484 1483 1482 1481 1480 1478 1477 1475 1474 1473 1471 1470 1468 1467 1466 1464 1462
1534 1533 1533 1532 1532 1531 1530 1529 1529 1528 1527 1526 1525 1524 1523 1522 1521 1520 1519 1518 1517 1516 1515 1513 1512 1512 1511 1510 1509 1508 1507 1506 1505 1504 1503 1502 1502 1501 1500 1498 1497 1496 1495 1494 1492 1491 1490 1489 1487 1486 1484 1483 1482 1481 1480 1479 1478 1477 1475 1474 1472 1471 1470 1468 1467 1466 1464 1462 1461
1532 1532 1531 1531 1530 1529 1529 1528 1527 1526 1525 1524 1523 1522 1521 1520 1519 1518 1517 1517 1516 1514 1513 1512 1511 1510 1509 1508 1507 1506 1505 1504 1503 1502 1502 1501 1500 1499 1498 1497 1496 1495 1493 1492 1491 1490 1488 1487 1486 1484 1483 1481 1480 1479 1478 1477 1476 1475 1473 1472 1471 1469 1468 1467 1465 1464 1462 1461 1459
1531 1530 1530 1529 1529 1528 1527 1526 1526 1525 1524 1523 1522 1521 1520 1519 1518 1517 1516 1515 1514 1513 1512 1511 1510 1509 1508 1507 1506 1505 1504 1503 1502 1501 1500 1499 1498 1497 1496 1495 1494 1493 1492 1491 1489 1488 1487 1485 1484 1482 1481 1480 1478 1477 1476 1475 1474 1473 1472 1470 1469 1468 1467 1465 1464 1462 1461 1459 1457
1529 1529 1528 1528 1527 1527 1526 1525 1524 1523 1522 1522 1521 1520 1519 1517 1517 1516 1515 1514 1513 1512 1511 1510 1508 1507 1506 1505 1504 1503 1502 1502 1501 1499 1498 1497 1496 1495 1494 1493 1492 1491 1490 1489 1487 1486 1485 1484 1482 1481 1479 1478 1477 1476 1474 1473 1472 1471 1470 1469 1467 1466 1465 1463 1462 1461 1459 1457 1456
1528 1527 1527 1526 1526 1525 1524 1523 1523 1522 1521 1520 1519 1518 1517 1516 1515 1514 1513 1512 1512 1511 1509 1508 1507 1506 1505 1504 1503 1502 1501 1500 1499 1498 1497 1495 1494 1493 1492 1492 1490 1489 1488 1487 1486 1485 1483 1482 1481 1479 1478 1477 1475 1474 1473 1472 1471 1469 1468 1467 1466 1465 1463 1462 1460 1459 1457 1456 1454
1526 1526 1525 1525 1524 1524 1523 1522 1521 1520 1519 1518 1518 1517 1516 1515 1514 1513 1512 1511 1510 1509 1508 1507 1506 1505 1503 1502 1501 1500 1499 1498 1497 1496 1495 1494 1493 1492 1491 1490 1488 1487 1486 1485 1484 1483 1482 1481 1479 1477 1476 1475 1474 1472 1471 1470 1469 1468 1466 1465 1464 1463 1462 1460 1459 1457 1456 1455 1453
1525 1524 1524 1523 1523 1522 1521 1521 1520 1519 1518 1517 1516 1516 1515 1514 1513 1512 1511 1510 1509 1508 1507 1506 1504 1503 1502 1501 1500 1499 1498 1497 1496 1495 1493 1492 1491 1490 1489 1488 1487 1486 1484 1483 1482 1481 1480 1479 1477 1476 1475 1473 1472 1471 1470 1469 1467 1466 1465 1463 1462 1461 1460 1458 1457 1456 1455 1453 1452
1523 1523 1522 1522 1521 1521 1520 1519 1518 1517 1517 1516 1515 1514 1513 1512 1511 1510 1509 1508 1507 1507 1506 1504 1503 1502 1501 1500 1499 1497 1497 1495 1494 1493 1492 1491 1489 1488 1487 1486 1485 1484 1482 1482 1480 1479 1478 1477 1476 1474 1473 1472 1471 1469 1468 1467 1466 1464 1463 1462 1460 1459 1458 1457 1456 1455 1453 1452 1450
1522 1521 1521 1521 1520 1519 1519 1518 1517 1516 1516 1515 1514 1513 1512 1511 1510 1509 1508 1507 1506 1505 1504 1503 1502 1501 1500 1498 1497 1496 1495 1494 1493 1492 1490 1489 1488 1487 1485 1484 1483 1482 1481 1480 1479 1477 1476 1475 1474 1473 1472 1471 1469 1468 1467 1466 1464 1463 1461 1460 1458 1457 1456 1455 1454 1453 1452 1450 1449
1520 1520 1519 1519 1518 1518 1517 1517 1516 1515 1514 1513 1512 1512 1511 1510 1509 1508 1507 1506 1505 1504 1503 1502 1501 1499 1498 1497 1496 1495 1494 1493 1491 1490 1489 1487 1487 1485 1484 1483 1482 1480 1479 1478 1477 1476 1475 1473 1472 1471 1470 1469 1468 1467 1465 1464 1462 1461 1460 1458 1457 1455 1454 1453 1452 1451 1450 1448 1447
1518 1518 1518 1517 1517 1517 1516 1515 1514 1514 1513 1512 1511 1510 1509 1508 1507 1507 1506 1504 1503 1502 1502 1501 1499 1498 1497 1496 1495 1494 1492 1491 1490 1489 1487 1486 1485 1483 1482 1481 1480 1478 1477 1476 1475 1474 1473 1472 1471 1469 1468 1467 1466 1465 1463 1462 1461 1459 1458 1457 1455 1454 1452 1451 1450 1449 1448 1447 1446
1517 1517 1517 1516 1516 1515 1514 1514 1513 1512 1512 1511 1510 1509 1508 1507 1506 1505 1504 1503 1502 1501 1500 1499 1498 1497 1496 1495 1494 1492 1491 1490 1488 1487 1486 1485 1483 1482 1481 1479 1478 1477 1476 1474 1473 1472 1471 1470 1469 1468 1467 1465 1464 1463 1462 1461 1459 1458 1456 1455 1453 1452 1450 1448 1447 1447 1446 1445 1444
1515 1515 1515 1515 1514 1513 1513 1512 1512 1511 1510 1509 1508 1507 1507 1506 1505 1504 1503 1502 1501 1500 1499 1498 1497 1496 1495 1494 1492 1491 1490 1488 1487 1486 1484 1483 1482 1481 1479 1478 1477 1475 1474 1473 1472 1471 1470 1469 1467 1467 1465 1464 1462 1461 1460 1459 1458 1457 1455 1453 1451 1449 1447 1446 1445 1445 1444 1444 1442
1513 1513 1513 1513 1512 1512 1512 1511 1510 1509 1509 1508 1507 1506 1505 1504 1503 1502 1501 1500 1500 1499 1498 1497 1496 1495 1494 1492 1491 1490 1488 1487 1486 1484 1483 1482 1481 1479 1478 1477 1475 1474 1472 1471 1470 1469 1468 1467 1466 1465 1464 1462 1461 1460 1459 1457 1456 1455 1453 1451 1449 1447 1445 1444 1443 1443 1443 1442 1441
1512 1512 1512 1511 1511 1511 1510 1509 1509 1508 1507 1507 1506 1505 1504 1503 1502 1501 1500 1499 1498 1497 1497 1496 1495 1494 1492 1491 1490 1488 1487 1486 1484 1483 1482 1480 1479 1478 1477 1475 1474 1472 1471 1470 1469 1468 1467 1466 1465 1464 1462 1461 1459 1458 1457 1456 1454 1453 1451 1449 1447 1445 1443 1442 1442 1442 1442 1440 1439
1510 1510 1510 1510 1509 1509 1508 1508 1507 1507 1506 1505 1504 1503 1502 1502 1501 1500 1499 1498 1497 1496 1495 1495 1493 1492 1491 1490 1489 1487 1486 1484 1483 1482 1481 1479 1478 1477 1475 1474 1472 1471 1470 1469 1467 1467 1465 1464 1463 1462 1461 1459 1458 1457 1455 1454 1452 1451 1449 1447 1446 1443 1442 1441 1441 1440 1440 1438 1437
1508 1508 1508 1508 1508 1507 1507 1507 1506 1505 1504 1503 1503 1502 1501 1500 1499 1498 1498 1497 1496 1495 1494 1493 1492 1491 1490 1488 1487 1486 1485 1483 1482 1481 1480 1478 1477 1476 1474 1473 1472 1470 1469 1467 1466 1465 1464 1462 1462 1460 1459 1458 1456 1455 1454 1452 1451 1449 1447 1445 1443 1442 1440 1440 1439 1439 1438 1437 1435
1507 1507 1507 1507 1506 1506 1506 1505 1504 1504 1503 1502 1501 1501 1500 1499 1498 1497 1496 1496 1495 1494 1493 1492 1491 1490 1488 1487 1486 1485 1484 1482 1481 1480 1479 1477 1476 1474 1473 1472 1470 1469 1467 1466 1465 1464 1462 1461 1460 1459 1457 1456 1455 1453 1452 1451 1449 1447 1445 1443 1442 1440 1439 1438 1438 1437 1436 1435 1433
1505 1505 1505 1505 1505 1504 1504 1503 1503 1502 1502 1501 1500 1499 1498 1497 1497 1496 1495 1494 1493 1492 1492 1490 1489 1488 1487 1486 1485 1484 1483 1482 1480 1479 1477 1476 1475 1473 1472 1470 1469 1467 1466 1465 1464 1462 1461 1460 1458 1457 1456 1455 1453 1452 1450 1449 1447 1446 1444 1442 1440 1439 1438 1437 1437 1436 1434 1433 1432
1503 1503 1503 1503 1503 1503 1502 1502 1501 1501 1500 1499 1498 1498 1497 1496 1495 1495 1494 1493 1492 1491 1490 1489 1488 1487 1486 1485 1484 1482 1482 1480 1479 1477 1476 1475 1473 1472 1471 1469 1468 1466 1465 1464 1462 1461 1460 1458 1457 1456 1454 1453 1452 1450 1448 1447 1445 1443 1442 1440 1439 1438 1437 1436 1435 1434 1432 1431 1430
1502 1502 1502 1502 1502 1501 1501 1500 1500 1499 1499 1498 1497 1496 1496 1495 1494 1493 1492 1492 1491 1490 1489 1488 1487 1486 1485 1483 1482 1481 1480 1479 1478 1477 1475 1474 1472 1471 1469 1468 1467 1465 1464 1462 1461 1460 1458 1457 1456 1454 1453 1451 1450 1448 1446 1444 1442 1440 1438 1437 1437 1436 1435 1434 1433 1432 1431 1430 1428
1500 1500 1500 1500 1500 1500 1499 1499 1498 1498 1497 1497 1496 1495 1494 1493 1493 1492 1491 1491 1490 1489 1488 1487 1486 1484 1483 1482 1481 1480 1479 1478 1477 1475 1474 1472 1471 1470 1468 1467 1466 1464 1463 1462 1460 1458 1457 1455 1454 1452 1451 1449 1447 1446 1443 1441 1439 1437 1436 1435 1434 1434 1433 1432 1431 1430 1429 1428 1427
1498 1498 1498 1498 1498 1498 1497 1497 1497 1496 1496 1495 1494 1494 1493 1492 1492 1491 1490 1489 1488 1487 1487 1485 1484 1483 1482 1481 1480 1479 1478 1476 1475 1474 1472 1471 1470 1468 1467 1466 1465 1463 1462 1461 1459 1458 1456 1454 1453 1452 1450 1449 1447 1444 1442 1440 1438 1437 1435 1434 1433 1432 1431 1430 1430 1428 1427 1426 1425
1496 1497 1497 1497 1497 1496 1496 1496 1495 1495 1494 1494 1493 1492 1492 1491 1490 1489 1489 1488 1487 1486 1485 1484 1483 1482 1481 1480 1479 1478 1477 1475 1473 1472 1471 1470 1468 1467 1466 1465 1463 1462 1461 1460 1458 1457 1456 1455 1454 1452 1450 1448 1446 1444 1442 1440 1439 1437 1436 1434 1432 1431 1430 1429 1428 1427 1425 1424 1423
1494 1495 1495 1495 1495 1494 1494 1494 1494 1493 1493 1492 1492 1491 1490 1489 1489 1488 1487 1487 1486 1485 1484 1483 1482 1481 1480 1479 1478 1477 1475 1474 1472 1471 1469 1468 1467 1466 1465 1463 1462 1461 1460 1459 1457 1456 1455 1455 1454 1452 1450 1448 1445 1443 1441 1440 1439 1437 1435 1433 1432 1431 1429 1428 1426 1425 1423 1422 1422
1492 1493 1493 1493 1493 1493 1492 1492 1492 1492 1491 1491 1490 1489 1489 1488 1487 1487 1486 1485 1484 1483 1482 1482 1481 1480 1479 1478 1477 1475 1474 1472 1471 1470 1468 1467 1466 1464 1463 1462 1461 1460 1459 1458 1457 1455 1454 1454 1452 1451 1449 1447 1444 1442 1441 1440 1438 1436 1434 1432 1430 1429 1427 1426 1424 1422 1421 1421 1420
1490 1491 1491 1491 1491 1491 1491 1491 1490 1490 1490 1489 1488 1488 1487 1487 1486 1486 1485 1484 1483 1482 1481 1480 1480 1479 1477 1477 1475 1474 1472 1471 1470 1468 1467 1466 1465 1463 1462 1461 1460 1459 1458 1457 1456 1454 1453 1452 1451 1450 1448 1446 1443 1442 1441 1439 1437 1435 1433 1431 1429 1428 1427 1425 1423 1422 1420 1419 1419
1488 1489 1489 1489 1489 1489 1489 1489 1489 1488 1488 1487 1487 1487 1486 1485 1485 1484 1483 1482 1482 1481 1480 1479 1478 1477 1476 1475 1474 1472 1471 1470 1469 1467 1466 1465 1463 1462 1461 1460 1459 1458 1457 1456 1455 1453 1452 1451 1450 1449 1447 1445 1443 1442 1440 1438 1436 1434 1432 1430 1428 1427 1425 1423 1422 1420 1419 1418 1418
1487 1487 1487 1487 1487 1487 1487 1487 1487 1487 1487 1486 1485 1485 1484 1484 1483 1483 1482 1481 1480 1480 1479 1478 1477 1476 1475 1474 1472 1471 1470 1469 1467 1466 1465 1463 1462 1461 1460 1459 1458 1457 1456 1455 1454 1452 1451 1450 1449 1448 1446 1444 1442 1441 1440 1437 1435 1433 1431 1429 1427 1426 1424 1422 1420 1419 1417 1417 1417
1484 1485 1485 1485 1485 1486 1486 1486 1485 1485 1485 1484 1484 1483 1483 1482 1482 1481 1481 1480 1479 1478 1477 1477 1476 1475 1474 1472 1471 1470 1469 1467 1466 1465 1464 1462 1461 1460 1459 1458 1457 1456 1455 1454 1453 1452 1450 1449 1448 1447 1445 1443 1442 1440 1438 1436 1435 1433 1431 1429 1427 1425 1423 1422 1420 1418 1417 1416 1416
1482 1482 1483 1483 1483 1484 1484 1484 1483 1483 1483 1482 1482 1482 1481 1481 1481 1480 1479 1478 1478 1477 1476 1475 1474 1473 1472 1471 1470 1469 1467 1466 1465 1464 1462 1461 1460 1459 1458 1457 1456 1455 1454 1453 1452 1451 1449 1448 1447 1445 1443 1442 1442 1439 1437 1436 1434 1432 1430 1428 1427 1425 1423 1422 1420 1418 1416 1415 1415
1480 1480 1481 1481 1482 1482 1482 1482 1482 1482 1481 1481 1481 1480 1480 1479 1479 1478 1478 1477 1476 1476 1475 1474 1473 1472 1471 1470 1468 1467 1466 1465 1464 1462 1461 1460 1459 1458 1457 1456 1455 1454 1453 1452 1451 1450 1448 1447 1445 1444 1443 1442 1440 1438 1437 1435 1433 1432 1430 1428 1427 1425 1423 1421 1419 1417 1416 1415 1414
1478 1478 1479 1479 1480 1480 1480 1480 1480 1480 1479 1479 1479 1479 1478 1478 1477 1477 1477 1476 1475 1474 1473 1472 1472 1471 1470 1468 1467 1466 1465 1464 1462 1461 1460 1459 1458 1457 1456 1455 1454 1453 1452 1452 1450 1449 1447 1446 1444 1443 1442 1441 1439 1437 1436 1434 1432 1431 1429 1428 1426 1424 1423 1421 1419 1417 1415 1414 1414
1476 1476 1477 1477 1477 1478 1478 1478 1478 1478 1477 1477 1477 1477 1477 1476 1476 1476 1475 1474 1474 1473 1472 1471 1471 1470 1468 1467 1466 1465 1464 1462 1461 1460 1459 1458 1457 1456 1455 1454 1453 1452 1452 1451 1450 1448 1447 1445 1443 1442 1442 1440 1438 1437 1435 1433 1432 1430 1429 1427 1426 1424 1422 1420 1418 1416 1415 1414 1413
1474 1474 1474 1475 1476 1476 1476 1476 1476 1476 1476 1476 1476 1475 1475 1475 1475 1474 1474 1473 1472 1472 1471 1470 1469 1468 1467 1466 1465 1464 1462 1461 1460 1459 1458 1457 1456 1454 1453 1453 1452 1452 1451 1450 1449 1447 1446 1444 1442 1442 1442 1440 1437 1436 1434 1433 1431 1430 1428 1427 1425 1423 1421 1419 1417 1416 1414 1413 1413
1472 1472 1472 1473 1473 1474 1474 1474 1474 1474 1474 1474 1474 1474 1474 1473 1473 1473 1472 1472 1471 1470 1469 1469 1468 1467 1466 1465 1464 1462 1462 1460 1459 1457 1457 1456 1454 1453 1452 1452 1451 1450 1450 1449 1448 1446 1445 1443 1442 1442 1441 1439 1437 1435 1434 1432 1431 1429 1427 1426 1424 1423 1421 1419 1417 1415 1414 1413 1412
1469 1470 1470 1471 1471 1472 1472 1472 1472 1472 1472 1472 1472 1472 1472 1472 1472 1471 1471 1470 1469 1469 1468 1467 1467 1466 1465 1463 1462 1461 1460 1459 1458 1457 1455 1454 1453 1452 1451 1450 1450 1449 1449 1448 1447 1446 1444 1442 1441 1441 1441 1439 1436 1434 1433 1432 1430 1428 1427 1425 1424 1422 1421 1419 1417 1415 1413 1412 1412
1467 1467 1468 1468 1469 1470 1470 1470 1470 1471 1471 1471 1471 1470 1470 1470 1470 1470 1469 1469 1468 1467 1467 1466 1465 1464 1463 1462 1461 1460 1459 1458 1457 1456 1454 1453 1452 1452 1450 1449 1449 1448 1448 1447 1446 1445 1443 1442 1441 1441 1441 1438 1436 1434 1433 1432 1430 1428 1426 1425 1423 1422 1421 1419 1417 1415 1413 1412 1411
1465 1465 1466 1466 1467 1467 1468 1468 1469 1469 1469 1469 1469 1469 1469 1468 1468 1468 1467 1467 1467 1466 1465 1464 1464 1463 1462 1461 1460 1459 1458 1457 1456 1455 1454 1452 1452 1451 1450 1449 1448 1447 1447 1446 1445 1444 1442 1442 1441 1441 1440 1438 1435 1434 1432 1432 1430 1428 1426 1424 1423 1422 1420 1418 1417 1415 1413 1412 1411
1462 1463 1463 1464 1465 1465 1466 1467 1467 1467 1467 1467 1467 1467 1467 1467 1467 1466 1466 1466 1465 1465 1464 1463 1462 1462 1461 1460 1459 1458 1457 1456 1455 1454 1453 1452 1451 1450 1449 1448 1447 1446 1446 1445 1444 1443 1442 1441 1440 1440 1439 1438 1435 1433 1432 1431 1430 1427 1426 1424 1423 1421 1420 1418 1416 1415 1413 1412 1410
Wind_Speed
15 15 16 16 17 17 18 18 19 19 20 20 20 20 20 20 20 20 20 20 20 20 20 20 21 21 21 20 20 20 21 21 21 22 22 23 23 23 23 24 24 24 24 25 25 26 26 26 26 26 25 25 24 24 24 24 24 24 25 25 26 27 27 27 27 27 27 27 27
15 15 16 16 17 18 18 18 19 19 20 20 20 20 20 20 20 20 20 20 20 20 21 21 21 21 21 21 21 21 22 22 23 23 23 24 24 24 24 24 25 25 25 25 26 26 26 26 26 26 26 25 25 24 24 23 24 24 25 25 26 26 27 27 27 27 27 27 27
15 15 16 16 17 18 18 19 19 19 20 20 20 20 20 20 20 20 20 20 20 20 20 21 21 21 21 22 22 22 22 23 24 24 25 25 25 25 25 25 25 25 25 26 26 26 26 26 26 26 26 26 25 25 24 23 23 24 25 25 26 26 26 27 27 27 27 27 27
15 15 16 17 17 18 18 19 19 19 19 20 20 20 20 20 20 20 20 20 20 20 20 21 21 21 21 22 22 22 22 23 24 25 25 26 26 26 26 26 26 26 26 26 26 26 26 26 26 26 26 26 26 25 25 24 24 24 24 25 25 26 26 26 26 26 26 27 27
15 16 16 17 17 18 18 19 19 19 19 20 20 20 20 20 20 20 20 20 20 20 20 20 21 21 21 21 22 22 23 23 24 24 25 26 26 26 26 26 26 26 26 26 26 26 26 25 25 26 26 26 26 26 25 24 24 24 24 25 25 25 26 26 26 26 26 26 26
15 16 16 17 17 18 18 19 19 19 19 20 20 20 19 19 20 20 20 20 20 20 20 20 21 21 21 21 22 22 23 23 23 24 25 25 25 25 25 25 25 26 26 26 26 25 25 25 25 26 26 26 26 26 25 24 25 25 25 25 25 25 25 25 26 26 26 26 26
15 16 16 17 17 18 18 18 19 19 19 20 20 19 19 19 19 19 20 20 20 20 20 21 21 21 21 22 22 22 23 23 23 24 24 25 25 25 25 25 25 25 26 26 26 25 25 25 25 26 26 26 26 26 25 25 25 25 25 25 25 25 25 25 25 26 26 26 26
15 16 16 17 17 18 18 18 19 19 19 19 19 19 19 19 19 20 20 20 20 20 20 21 21 21 21 22 22 22 23 23 24 24 24 24 25 25 25 25 25 25 26 26 25 25 25 24 25 25 25 25 26 26 25 25 25 25 25 25 25 25 25 26 26 26 26 26 26
15 16 16 17 17 18 18 18 19 19 19 19 19 19 19 19 19 19 20 20 20 20 20 21 21 21 22 22 22 22 23 23 24 24 24 25 25 25 25 25 25 26 26 26 25 25 25 24 25 25 25 25 25 25 25 25 24 24 24 25 25 26 26 26 26 26 25 25 25
15 16 16 17 17 18 18 18 19 19 19 19 19 19 19 19 19 19 19 20 20 20 20 21 21 21 22 22 22 22 23 23 24 24 25 25 25 25 25 25 25 26 26 26 25 25 24 24 24 24 24 24 24 25 25 25 24 24 24 25 25 27 27 27 27 26 25 25 24
15 16 16 17 17 18 18 18 18 19 19 19 19 18 18 18 18 19 19 20 20 20 20 21 21 21 22 22 22 22 23 23 24 24 25 25 25 25 25 25 25 26 26 25 25 24 24 24 24 24 24 24 24 25 25 25 24 24 24 25 26 27 29 29 29 27 26 24 23
16 16 17 17 17 18 18 18 18 18 18 19 18 18 18 18 18 18 19 19 20 20 20 20 21 21 21 22 22 22 23 23 24 24 25 25 25 25 25 25 25 25 25 25 24 24 24 23 23 23 23 24 24 24 25 24 24 24 25 25 26 28 30 31 30 28 26 23 21
16 16 17 17 17 18 18 18 18 18 18 18 18 18 18 18 18 18 19 19 20 20 20 20 20 21 21 21 22 22 23 23 24 24 25 25 25 25 25 25 25 25 25 24 24 23 23 23 23 23 23 24 24 24 24 24 24 24 25 26 28 30 32 33 33 29 25 21 20
16 16 17 17 17 18 18 18 18 18 18 18 18 17 17 17 17 18 18 19 19 20 20 20 20 20 21 21 21 22 22 23 24 24 25 25 25 25 25 25 24 24 24 24 23 23 23 22 22 23 23 24 24 24 24 23 23 24 25 27 29 31 34 37 35 30 23 19 18
16 16 17 17 17 18 18 18 18 18 18 18 17 17 17 17 17 18 18 19 19 19 20 20 20 20 20 20 21 22 22 23 23 24 24 25 24 24 24 24 24 23 23 23 23 23 22 22 22 23 23 24 24 24 23 22 23 23 25 27 29 33 37 40 37 30 22 18 17
16 16 16 17 17 18 18 18 18 18 18 17 17 17 17 17 17 17 18 19 19 19 19 19 20 20 20 20 20 21 22 23 23 24 24 24 24 23 23 23 23 23 22 22 22 22 22 22 22 23 23 23 23 23 22 22 23 24 25 27 29 33 38 40 36 27 19 17 16
16 16 17 17 17 17 18 18 17 17 17 17 17 16 16 17 17 17 18 18 19 19 19 19 19 20 20 20 20 21 22 22 23 23 23 23 23 22 22 22 22 22 22 22 22 22 21 21 22 22 22 22 22 22 22 22 23 24 25 27 30 34 38 39 32 23 17 16 15
16 16 17 17 17 17 17 17 17 17 17 17 16 16 16 16 17 17 17 18 18 19 19 19 19 19 20 20 20 21 21 22 22 22 22 22 22 22 21 21 21 21 21 21 21 21 21 22 22 22 22 21 21 21 22 23 24 26 27 29 32 36 38 35 27 19 16 15 15
16 16 16 17 17 17 17 17 17 17 17 16 16 16 16 16 16 17 17 18 18 19 19 19 19 19 19 20 20 20 20 21 21 21 21 21 21 21 21 21 21 21 21 21 21 21 21 22 22 22 21 21 21 22 23 25 26 27 29 31 35 37 36 31 23 18 16 16 15
16 16 16 16 17 17 17 17 17 16 16 16 16 15 16 16 16 17 17 17 18 18 18 19 19 19 19 19 19 20 20 20 20 20 20 20 20 21 21 21 21 21 20 20 20 21 21 22 22 22 22 22 23 24 25 26 28 29 30 32 35 36 34 28 22 19 18 17 17
16 16 16 16 17 17 17 16 16 16 16 15 15 15 15 16 16 16 17 17 17 18 18 18 18 19 19 19 19 19 19 19 19 20 20 20 20 21 21 21 21 21 20 20 20 21 21 22 22 22 23 23 25 26 27 29 30 31 31 32 33 33 31 27 24 21 20 19 17
16 16 16 16 16 16 16 16 16 16 15 15 15 15 15 15 16 16 17 17 17 17 17 17 18 18 18 19 19 19 19 19 19 19 20 20 20 20 20 21 21 20 20 20 20 21 22 23 23 24 25 26 27 28 30 31 33 33 33 32 31 30 29 28 25 23 22 20 18
16 16 16 16 16 16 16 16 15 15 15 14 14 14 15 15 15 16 16 16 17 17 17 17 17 17 18 18 18 19 19 19 19 19 19 20 20 20 20 20 20 20 20 20 21 22 23 24 25 26 26 28 30 32 33 35 37 37 36 34 31 29 28 28 27 26 24 22 20
16 16 16 16 16 16 16 15 15 15 14 14 14 14 14 15 15 15 16 16 16 16 16 16 17 17 17 17 18 18 18 19 19 19 19 19 20 20 20 20 19 19 19 19 20 22 23 24 25 27 28 29 32 34 36 38 39 39 37 35 33 30 29 29 29 29 28 25 22
16 17 16 16 16 16 15 15 15 14 14 14 13 14 14 14 15 15 15 15 15 15 16 16 16 16 16 17 17 17 18 18 19 20 20 20 20 20 19 19 19 18 18 19 20 21 22 23 24 26 27 29 31 34 36 38 38 36 34 33 31 30 30 30 30 31 31 28 24
17 17 16 16 16 16 15 15 14 14 14 13 13 13 13 14 14 15 15 15 15 15 15 15 16 16 16 16 16 17 17 18 19 19 20 20 20 20 19 19 18 18 18 19 20 21 22 23 23 24 26 28 30 33 36 37 35 33 32 30 29 28 28 29 30 31 32 30 26
17 17 16 16 16 15 15 14 14 14 13 13 13 13 13 13 14 14 14 14 14 14 14 15 15 15 16 16 16 16 17 17 18 19 20 20 20 20 19 18 18 17 18 19 20 21 23 23 24 24 26 28 31 33 35 36 34 32 30 29 27 26 25 27 28 30 31 30 26
17 17 16 16 16 15 15 14 14 13 13 12 12 12 12 13 13 13 14 14 14 14 14 14 14 15 15 15 16 16 17 17 18 19 19 19 20 19 19 18 17 17 17 18 20 21 22 23 24 25 27 29 32 34 35 34 31 30 29 28 26 25 24 24 25 27 28 28 25
17 17 16 16 15 15 14 14 13 13 13 12 12 12 12 12 12 13 13 13 13 13 13 14 14 14 15 15 15 16 16 17 18 18 19 19 19 19 18 17 17 16 17 18 19 21 22 24 25 26 27 30 33 35 34 31 29 28 27 27 26 26 25 24 24 24 24 24 22
17 17 16 16 15 15 14 14 13 13 12 12 12 11 11 11 12 12 12 12 12 12 13 13 14 14 15 15 16 16 16 17 17 18 18 18 18 18 18 17 16 16 16 18 19 21 23 24 25 26 28 31 33 34 31 27 26 26 26 26 27 27 27 26 24 22 21 20 19
18 17 16 16 15 15 14 14 13 13 12 12 11 11 11 11 11 11 12 12 12 12 12 13 13 14 14 15 15 16 16 16 17 17 17 17 18 18 17 16 16 16 16 17 19 21 23 24 25 27 29 32 33 30 26 25 25 25 26 27 28 29 28 26 24 22 20 19 17
18 17 16 15 15 14 14 14 13 13 12 12 11 11 10 11 11 11 11 11 12 12 12 12 13 13 14 14 15 15 16 16 16 16 16 17 17 17 17 16 15 15 16 17 19 21 23 24 25 27 30 31 29 26 25 25 25 25 25 27 28 29 28 26 23 21 19 18 16
18 17 16 15 15 14 14 14 14 13 12 11 11 10 10 10 10 10 11 11 11 11 12 12 13 13 14 15 15 16 16 16 16 16 16 16 17 17 16 15 15 15 15 16 18 20 22 23 25 29 30 28 25 24 25 25 25 24 25 26 28 28 27 25 23 20 19 17 14
19 17 16 15 15 14 14 14 14 13 12 11 11 10 10 10 10 10 10 11 11 11 11 12 12 13 14 15 15 16 16 16 16 16 16 16 16 16 16 15 14 14 15 16 17 19 21 23 26 29 28 24 23 25 26 26 24 24 24 25 27 28 27 25 22 19 17 16 14
19 18 16 15 15 14 14 14 14 13 12 12 11 10 10 10 10 10 10 10 11 11 11 11 12 13 13 14 15 16 16 16 16 16 15 15 16 16 16 15 14 14 14 15 16 18 20 23 26 27 25 22 23 26 26 26 24 23 23 25 27 28 28 26 23 19 16 15 13
19 18 17 16 15 15 15 15 14 13 12 11 10 10 10 10 10 10 10 10 10 10 10 11 12 12 13 14 15 15 16 16 16 15 15 15 15 16 16 15 14 13 13 14 15 17 19 22 25 25 23 21 23 26 26 25 24 22 23 25 27 29 29 27 23 19 16 13 12
19 18 17 16 15 15 15 15 14 14 13 11 11 10 10 10 10 9 10 10 10 10 10 11 11 12 13 14 15 15 15 15 15 15 15 15 15 15 15 15 14 13 13 13 14 16 18 20 23 23 22 22 24 25 26 25 23 22 23 25 28 29 29 28 25 21 16 12 11
20 18 17 16 15 15 15 15 15 14 12 11 11 10 10 10 9 9 9 10 10 10 10 10 11 12 13 14 15 15 15 15 15 14 14 14 14 14 15 15 14 13 13 13 13 15 17 19 21 21 21 22 24 24 24 24 22 22 23 25 28 29 29 28 26 22 18 14 11
20 19 18 16 16 16 15 15 15 14 12 12 11 11 10 10 9 9 9 9 10 10 10 10 11 12 13 14 15 15 15 14 14 13 13 13 13 14 14 14 14 13 12 12 12 13 15 17 20 21 20 21 23 24 23 22 21 21 22 25 27 28 28 27 26 24 21 17 13
20 19 18 17 16 16 16 15 15 14 13 12 12 11 10 10 9 9 9 9 9 9 10 10 11 11 12 13 14 15 15 14 13 12 12 13 13 13 13 13 13 12 12 11 11 12 14 16 19 21 20 21 23 23 22 21 20 21 22 25 27 28 28 27 26 24 22 19 16
21 20 19 17 17 16 16 15 15 14 13 13 12 11 10 10 9 9 8 8 9 9 9 10 10 11 12 13 14 15 15 14 13 12 12 12 12 12 12 12 12 12 12 11 10 10 11 13 18 20 20 21 23 23 22 20 20 20 22 24 27 27 27 27 26 24 22 19 17
Wind_Direction
297 300 302 305 307 309 311 313 314 316 317 318 319 319 319 320 320 321 321 321 321 321 321 321 321 321 322 322 322 321 320 319 318 317 317 316 316 317 318 318 319 320 320 320 320 320 319 318 316 314 311 309 308 308 310 312 314 315 316 317 317 318 318 319 320 322 324 325 325
295 298 301 303 306 308 310 312 314 315 316 318 319 319 320 320 320 320 321 321 321 320 320 321 321 320 320 320 320 319 318 316 316 315 314 314 314 314 315 316 317 318 319 319 320 320 320 319 318 316 313 310 308 307 308 309 310 312 313 314 316 317 317 317 318 319 321 322 323
294 297 300 302 305 307 309 311 313 315 317 318 319 319 320 320 320 320 320 320 320 320 320 319 320 320 320 320 320 318 317 315 314 313 312 312 312 313 313 314 315 316 317 318 319 320 321 321 319 317 314 311 309 307 306 307 308 308 310 312 314 315 316 316 317 317 318 319 320
293 296 298 301 303 306 308 311 313 315 316 317 318 318 319 319 319 319 319 319 320 319 319 319 319 320 320 320 319 318 317 316 314 313 312 311 312 312 312 313 313 315 316 317 319 320 322 322 320 317 315 313 310 308 306 306 306 306 307 309 312 314 315 315 315 315 315 315 317
291 294 297 300 302 305 307 310 312 314 316 317 317 318 318 318 318 318 318 318 319 319 319 319 319 320 320 320 319 318 318 317 315 313 312 312 311 311 311 312 312 314 315 316 318 320 322 322 320 318 315 313 311 309 307 306 305 305 306 307 310 312 313 313 313 313 312 313 314
289 293 296 298 301 304 306 309 311 313 315 316 317 317 317 317 317 317 317 318 319 319 320 320 319 320 320 319 319 319 318 317 316 315 313 312 312 312 312 312 312 313 314 316 318 320 322 321 319 317 315 314 312 310 308 307 305 305 305 306 308 310 311 311 311 311 310 311 312
288 292 295 297 300 302 305 308 310 313 314 315 316 316 316 316 316 316 317 318 319 320 320 320 320 320 320 320 320 319 319 318 317 316 315 314 313 313 313 312 313 313 314 315 318 320 321 321 318 316 315 314 312 311 309 308 306 305 305 306 307 309 310 310 310 309 309 309 310
287 291 294 296 298 301 304 307 309 311 313 314 315 315 315 316 316 317 318 319 320 320 320 320 320 320 320 320 320 320 319 319 318 317 316 315 314 314 314 313 313 313 314 316 318 320 320 319 317 315 315 314 313 312 310 309 307 305 304 305 307 308 309 309 309 308 308 307 308
285 289 292 294 297 300 303 306 308 310 311 312 313 314 315 316 317 318 319 319 320 320 320 321 320 320 320 320 320 320 320 319 319 318 318 317 316 316 315 315 314 314 315 317 319 320 319 317 315 314 313 313 313 312 311 310 307 305 304 304 306 307 308 309 309 307 306 305 307
284 287 290 292 295 299 302 304 307 309 310 312 313 314 315 317 318 318 319 319 320 321 321 321 321 321 321 321 321 320 320 320 319 319 319 318 318 317 317 316 315 315 316 317 319 319 318 316 314 313 312 312 313 312 311 310 307 305 304 304 305 307 309 310 309 307 304 304 307
282 285 288 291 294 297 300 303 305 307 309 311 313 314 315 316 317 318 319 319 320 321 322 322 322 321 321 321 321 321 321 320 320 320 320 320 319 319 318 317 317 317 317 318 318 318 316 315 313 312 312 312 313 312 311 310 308 305 304 305 306 308 309 310 309 306 303 303 308
280 284 287 290 294 296 299 301 304 306 308 310 312 314 315 316 317 318 319 320 321 322 323 323 322 321 321 321 321 321 322 322 322 322 322 321 321 321 320 319 319 318 318 319 319 318 316 315 314 313 313 313 313 312 311 310 308 306 306 307 308 309 310 311 309 305 302 304 310
278 282 286 289 292 295 298 300 303 305 307 309 311 313 314 315 317 318 319 320 322 323 323 323 322 322 321 322 322 323 323 324 324 324 323 323 323 322 322 321 321 321 320 320 320 318 317 316 315 314 314 314 313 313 312 310 308 307 308 309 310 311 311 311 309 306 304 307 311
277 281 285 289 291 294 297 299 302 304 307 309 311 312 314 316 317 319 320 321 322 323 323 322 322 322 322 322 323 324 325 325 326 325 325 325 324 324 323 323 323 323 322 321 320 319 318 317 317 316 316 315 314 313 313 312 310 310 310 310 311 312 313 313 312 310 308 310 313
276 280 284 288 290 293 296 299 301 304 306 308 310 312 314 316 318 320 321 321 322 322 322 322 322 323 323 324 325 326 326 327 327 326 326 326 325 325 325 325 325 324 323 322 321 320 319 318 318 318 317 316 314 314 314 314 314 313 312 312 312 313 314 315 315 314 312 312 313
275 279 283 286 290 292 295 298 300 303 306 308 310 312 314 317 319 320 321 321 321 321 321 321 322 323 324 325 326 327 327 327 327 327 326 326 326 327 327 327 326 325 324 322 321 320 320 319 319 318 317 316 315 315 316 317 317 316 315 314 314 315 316 316 316 315 313 313 314
274 278 282 285 288 291 294 297 300 303 305 308 310 312 314 317 319 320 320 320 320 320 320 321 323 324 325 327 328 328 328 328 328 327 327 327 327 328 328 328 327 326 324 322 322 321 321 321 320 319 318 317 316 317 318 319 319 319 319 318 318 317 316 316 316 315 314 316 317
273 277 281 285 288 291 293 296 299 302 305 307 310 312 314 317 318 319 319 319 319 319 319 321 323 324 326 327 328 329 328 328 327 327 327 327 327 328 328 328 327 326 325 324 323 324 323 323 321 320 319 318 319 319 320 321 322 322 322 323 321 318 316 316 316 315 316 321 323
271 276 280 283 287 289 292 295 298 301 304 307 309 312 314 316 317 318 318 318 318 318 319 321 323 324 326 327 328 328 328 327 326 326 326 327 328 328 329 329 328 327 326 326 326 325 324 323 322 321 321 321 321 322 322 322 322 322 323 323 321 318 317 317 315 314 318 324 327
270 274 278 282 285 288 290 294 297 300 303 306 309 311 313 315 316 317 317 317 317 318 319 321 323 324 325 326 327 327 327 326 326 326 326 327 328 329 330 330 329 329 328 328 327 326 325 324 323 323 324 324 325 325 324 322 320 320 320 321 320 320 319 319 315 313 315 321 326
268 273 277 280 283 286 289 292 296 299 302 305 308 310 312 314 315 316 316 316 317 318 319 320 322 324 325 325 325 326 326 326 326 326 327 328 329 330 331 330 330 329 329 328 328 326 325 324 324 326 327 327 327 326 324 321 318 316 316 318 319 321 322 320 316 312 311 314 321
267 272 275 278 282 285 288 291 294 298 301 304 306 309 311 313 314 314 315 316 316 318 319 321 322 323 324 324 324 325 325 326 327 327 327 328 329 330 330 330 330 329 329 329 328 326 325 325 327 329 330 329 327 324 322 318 315 312 311 312 314 317 318 318 316 312 309 310 314
265 269 273 277 280 283 286 290 293 296 300 302 305 308 309 312 313 313 314 315 316 317 319 321 322 323 323 323 323 324 325 326 327 328 328 328 329 330 330 330 329 329 329 328 327 326 326 328 330 332 331 328 324 320 317 314 311 309 307 306 306 308 310 312 314 314 312 309 310
263 267 271 275 279 282 285 289 292 295 298 301 303 306 308 310 311 312 313 313 315 317 319 321 322 322 322 322 322 323 325 326 328 329 329 329 329 329 329 329 328 328 328 327 326 326 328 330 331 330 327 323 318 315 313 311 310 309 308 306 304 304 305 309 314 316 315 311 308
261 265 269 273 277 281 284 287 291 294 297 299 301 304 306 308 309 310 311 313 315 318 320 321 321 321 320 320 321 323 325 328 329 330 329 329 328 328 328 328 327 327 326 325 325 327 328 328 327 324 320 317 315 314 313 313 311 314 317 316 314 311 311 314 318 320 318 312 307
259 263 268 272 276 279 282 286 289 291 294 296 299 302 304 307 308 309 310 312 315 318 320 321 321 320 320 320 322 324 327 329 330 330 329 328 327 327 327 327 326 326 325 324 325 327 328 326 323 320 318 317 316 315 315 315 318 324 330 333 331 326 322 322 324 325 322 315 308
257 262 266 270 274 277 280 284 286 289 291 294 297 299 302 304 305 307 309 312 316 319 321 321 321 320 320 321 323 325 328 330 331 330 329 327 326 325 325 325 325 324 324 324 325 327 326 324 323 322 320 319 318 317 316 318 323 332 340 343 341 337 332 329 329 329 326 319 311
255 260 264 268 272 275 278 281 283 286 289 291 294 297 299 301 303 306 308 312 315 318 320 320 319 319 320 321 324 326 329 331 331 330 329 327 325 324 324 324 324 324 324 324 325 326 326 325 324 324 322 321 319 317 318 321 329 337 342 344 344 342 339 337 337 337 333 326 317
253 257 262 265 269 273 276 278 281 283 285 287 291 294 296 299 302 304 307 311 314 317 318 319 319 320 321 323 325 328 330 331 331 330 328 326 324 323 323 323 323 324 324 324 324 325 326 326 325 325 324 322 320 320 322 328 336 342 345 346 346 346 346 345 347 348 345 336 325
251 255 259 264 267 271 273 276 278 279 281 284 287 290 293 296 299 302 305 309 312 315 318 319 320 321 323 325 327 329 331 332 331 330 328 325 324 323 324 324 324 324 324 324 325 327 328 327 326 325 325 324 323 325 330 338 345 348 349 350 350 350 349 348 349 350 349 343 330
249 253 257 262 265 268 271 273 274 275 277 280 284 287 290 293 296 299 303 306 310 314 317 319 320 322 324 326 328 329 330 331 331 331 329 326 324 324 325 326 326 326 326 326 327 329 330 329 328 328 328 327 327 332 341 349 352 353 354 354 354 352 350 347 347 348 348 343 332
247 251 255 259 263 266 267 269 270 272 274 277 280 283 287 290 294 297 300 305 309 313 316 318 320 321 324 326 328 330 331 332 332 331 330 327 325 325 326 328 328 328 329 329 331 332 332 331 332 331 331 331 335 344 353 355 355 355 356 356 355 352 349 346 345 346 347 343 332
245 248 252 256 260 263 264 265 266 268 270 272 275 279 282 286 289 293 298 302 307 312 315 318 320 323 325 328 330 332 333 333 333 332 330 328 326 325 326 329 330 332 332 333 334 335 336 336 337 335 333 334 344 354 357 356 355 355 356 356 355 352 348 346 345 346 348 345 335
243 246 250 254 257 259 261 262 263 264 266 269 271 275 278 282 286 290 294 299 305 310 315 318 321 324 327 330 331 333 333 334 333 332 330 328 326 325 326 329 333 335 335 336 337 339 340 342 341 338 336 340 350 356 356 355 353 353 354 355 354 351 349 347 347 348 351 350 342
241 244 248 251 254 256 258 258 260 261 263 265 267 270 274 278 283 287 292 297 303 309 314 318 321 324 327 330 332 333 333 333 333 332 331 328 326 325 326 329 334 336 337 338 340 343 345 346 344 340 338 343 352 355 355 353 351 350 351 353 353 352 351 350 349 351 354 355 349
240 242 245 248 251 253 255 256 257 258 259 261 264 266 269 274 278 285 291 297 303 308 313 318 321 325 328 331 333 334 335 334 333 332 330 327 325 323 325 328 333 337 339 339 343 348 350 349 346 343 341 345 351 354 354 352 348 346 348 351 352 352 352 352 351 353 355 357 352
238 241 243 246 248 251 252 253 254 255 256 258 260 262 265 269 274 281 288 295 301 307 312 318 322 327 330 333 335 337 337 335 333 331 329 326 323 321 322 326 331 336 339 340 345 352 356 356 352 346 343 346 350 353 353 351 346 344 345 349 350 351 352 353 353 354 355 355 351
237 239 241 243 246 248 250 251 251 252 253 255 256 259 261 266 271 278 284 292 298 305 311 319 324 329 332 335 337 339 339 337 334 330 327 324 321 319 319 322 328 333 336 339 345 354 1 3 355 349 345 347 348 350 352 350 345 342 343 347 349 349 351 353 354 354 354 353 350
235 237 239 241 244 246 248 248 249 250 250 251 252 255 258 263 269 275 282 289 297 304 312 319 325 331 334 336 338 340 341 340 336 331 326 322 319 317 316 318 321 327 331 335 344 357 5 4 357 350 346 346 346 347 348 348 343 340 342 346 347 348 349 352 354 355 355 355 352
234 236 237 239 242 244 245 246 247 247 247 248 249 252 255 260 265 271 278 286 295 304 312 319 326 332 336 337 338 340 342 343 339 333 326 321 317 314 312 311 314 319 325 331 341 355 5 6 360 354 349 346 343 343 344 345 341 339 341 345 346 346 347 350 353 355 357 358 358
233 234 235 237 240 242 243 244 244 243 244 245 247 249 252 257 261 267 275 284 293 302 311 318 327 333 336 338 339 340 342 344 343 337 330 323 317 311 307 304 306 312 319 327 336 351 4 9 5 360 353 346 342 341 342 343 340 338 340 344 344 344 346 348 351 354 357 360 3